www.pogodaiklimat.ru

ПОГОДА в Розберге, OR

  • Прогноз погоды в Розберге
  • Монитор погоды в Розберге
  • Климат в Розберге

АРХИВ ПОГОДЫ в Розберге

Время (UTC), дата Ветер
(напр.,м/с)
 
Видим.   Явления Облачность Т
(С)
Тd
(С)
f
(%)
Тe
(С)
Тes
(С)
Комфортность

P
(гПа)

Po
(гПа)
Тmin
(С)
Tmax
(С)
R
(мм)
SD
(см)
08:53 25.03 З  16 км    5/0 3000 м
[средняя] 
+8.3  +3.9  74  +7  +7    1013.8  994.7         
09:53 25.03   16 км    5/0 3000 м
[средняя] 
+7.2  +4.4  82  +6  +6    1012.9  993.7         
10:53 25.03   16 км    ясно  +7.2  +3.3  76  +6  +6    1011.7  992.7  +7.2  +11.1     
11:53 25.03 ЮВ  16 км    10/0 2850 м
[средняя] 
+6.7  +3.9  82  +4  +4    1011.8  992.7         
12:53 25.03   16 км    10/0 2250 м
[средняя] 
+7.2  +4.4  82  +6  +6    1011.4  992.3         
13:53 25.03   16 км    10/0 2400 м
[средняя] 
+7.2  +4.4  82  +6  +6    1012.1  993.0         
14:53 25.03   16 км    10/5 1800 м
[средняя] 
+7.8  +4.4  79  +7  +7    1012.4  993.0         
15:53 25.03   14 км  слабый дождь  10/10 1470 м  +8.3  +5.6  83  +8  +8    1012.5  993.0         
16:53 25.03   13 км  слабый дождь  10/10 1380 м  +8.9  +6.1  83  +8  +8    1012.6  993.3  +6.1  +8.9     
17:53 25.03 ЮВ  8 км  слабый дождь  10/10 900 м  +8.9  +6.1  83  +8  +8    1013.3  994.0         
18:53 25.03 ЮВ  11 км  слабый дождь  10/8 1650 м
[средняя] 
+9.4  +7.2  86  +7  +7    1013.4  994.0         
19:53 25.03 Ю  16 км    10/2 1260 м
[средняя] 
+10.6  +5.6  71  +8  +10    1013.9  994.7      0.8   
20:53 25.03 Ю  4
{9} 
16 км    5/2 1410 м
[средняя] 
+12.8  +5.6  62  +11  +14    1013.7  994.7         
21:53 25.03 Ю  4
{9} 
16 км    8/8 1290 м  +12.8  +3.3  52  +11  +12    1014.0  994.7         
22:53 25.03 З  16 км  слабый дождь  10/10 1260 м  +11.7  +5.6  66  +9  +9    1014.3  995.0  +8.3  +13.9  0.8   
23:17 25.03 ЮЗ  5
{9} 
3 км  дождь  10/10 840 м  +9.4  +6.7  83  +6  +6      996.0         
23:32 25.03 нст  5 км  слабый дождь, дымка  10/10 1200 м  +9.4  +7.2  86  +8  +8      996.0         
23:53 25.03 нст  16 км    10/2 1200 м
[средняя] 
+10.0  +7.8  86  +9  +10    1015.5  996.0         
00:53 26.03   16 км    10/5 1500 м
[средняя] 
+10.6  +5.6  71  +10  +10    1016.2  997.0         
01:53 26.03   16 км    10/10 1500 м  +9.4  +3.9  68  +9  +9    1016.7  997.3      2.0   
02:53 26.03   16 км    8/8 1200 м  +9.4  +3.3  66  +9  +9    1017.5  998.0         
03:53 26.03   16 км    10/10 1800 м  +7.8  +5.6  86  +7  +7    1018.2  998.7         
04:53 26.03 С  16 км    10/10 1020 м  +7.8  +5.6  86  +5  +5    1018.2  998.7  +7.8  +11.7  2.0   
05:53 26.03   16 км    ясно  +6.7  +5.0  89  +6  +6    1018.4  999.0         
06:53 26.03   16 км    ясно  +5.6  +3.9  89  +5  +5    1018.7  999.0         
07:53 26.03   16 км    ясно  +4.4  +3.3  93  +3  +3    1018.9  999.3         
08:53 26.03   16 км    ясно  +3.9  +2.8  93  +3  +3    1019.0  999.7         
09:53 26.03   16 км    2/2 150 м  +2.8  +1.7  92  +2  +2    1018.7  999.0         
10:43 26.03   2 км  дымка  5/5 120 м  +2.2  +1.7  96  +1  +1      999.0         
10:45 26.03   1 км  дымка  ?/?  +2.2  +1.7  96  +1  +1      999.0         
10:53 26.03   800 м  туман  ?/?  +2.2  +2.2  100  +1  +1    1018.6  999.0  +2.2  +7.8     
11:00 26.03   400 м  туман  ?/?  +2.8  +2.2  96  +2  +2      999.0         
11:53 26.03   400 м  туман  ?/?  +3.3  +2.8  97  +2  +2    1018.8  999.3         
12:53 26.03   400 м  туман  ?/?  +3.3  +2.8  97  +2  +2    1018.8  999.3         
13:53 26.03 В  400 м  туман  ?/?  +2.8  +2.8  100  0  0    1018.7  999.3         
14:43 26.03   1 км  дымка  10/10 60 м  +3.3  +2.8  97  +2  +2      999.0         
14:53 26.03   800 м  туман  10/10 60 м  +3.3  +3.3  100  +2  +2    1018.7  999.0         
15:06 26.03 З  3 км  дымка  10/10 60 м  +3.3  +2.8  97  +1  +1      999.3         
15:21 26.03   5 км  дымка  10/10 60 м  +3.3  +2.8  97  +2  +2      999.3         
15:34 26.03   4 км  дымка  10/10 60 м  +3.3  +3.3  100  +2  +2      999.3         
15:53 26.03   3 км  дымка  10/10 60 м  +3.9  +3.3  96  +3  +3    1018.9  999.3         
16:01 26.03 нст  3 км  дымка  10/10 60 м  +3.9  +3.3  96  +1  +1      999.3         
16:18 26.03   6 км  дымка  10/10 60 м  +3.9  +3.3  96  +3  +3      999.0         
16:53 26.03   16 км    10/10 90 м  +3.9  +3.3  96  +3  +3    1018.5  999.0  +2.8  +4.4     
17:21 26.03   16 км    10/10 180 м  +5.0  +3.9  93  +4  +4      999.0         
17:53 26.03   16 км    5/5 210 м  +6.7  +3.9  82  +6  +12    1018.1  998.7         
18:53 26.03   16 км    ясно  +10.0  +3.9  66  +10  +25  опасность
простуды 
1017.1  997.7         
19:53 26.03 З  16 км    ясно  +11.1  +4.4  63  +10  +21  опасность
простуды 
1016.1  996.7         

 

Местоположение метеостанции Roseburg Regional Airport: широта 43.2339 долгота -123.3561 высота над уровнем моря 160 м.

В архиве по умолчанию представлена погода в Розберге за последние 1-2 суток. Обновление информации о фактической погоде в базе происходит ежечасно! Архивные данные за месяц целиком и за предыдущие месяцы Вы можете получить, выбрав интересующий диапазон дат из раскрывающегося списка и нажав кнопку "Ввод!".

Внимание! Архив погоды МЕТАР в базе сайта хранится не более 60 дней. Нет смысла пытаться выбрать более раннюю дату.

Внимание! Время в таблицах - всемирное. Для получения местного времени необходимо прибавить поправку, которая в Розберге равна -8 ч.

Ветер - указаны скорость ветра в м/с и направление, откуда дует ветер: С - северный, СВ - северо-восточный, В - восточный, ЮВ - юго-восточный, Ю - южный, ЮЗ - юго-западный, З - западный, СЗ - северо-западный.
Видимость - горизонтальная дальность видимости в метрах или километрах. При видимости от 1 до 10 км при отсутствии осадков обычно наблюдается дымка, при ухудшении видимости до 1 км и менее - туман. В сухую погоду видимость может ухудшаться дымом, пылью или мглою.
Атмосферные явления - указаны явления, наблюдавшиеся в указанный момент времени.
Облачность - указаны через наклонную черту верхняя и нижняя облачность в баллах и высота нижней границы облаков в метрах. Внимание: облачность, как и прочие метеорологические величины в США измеряются автоматическими метеостанциями. Указанные значения в баллах носят условный характер и показывают процент времени, в течение которого, в среднем, лазерный луч высотомера отражался от облаков обратно.
T - Температура воздуха - температура, измеренная на высоте 2 м над землей.
Td - Температура точки росы - температура, при понижении до которой содержащийся в воздухе водяной пар достигнет насыщения.
f - Относительная влажность воздуха - влажноcть воздуха, измеренная на высоте 2 м над землей.
Te - Эффективная температура - температура, которую ощущает одетый по сезону человек в тени. Характеристика душности погоды. При расчете учитывается влияние влажности воздуха и скорости ветра на теплоощущения человека.
Tes - Эффективная температура на солнце - температура, которую ощущает человек, с поправкой на солнечный нагрев. Характеристика знойности погоды. Зависит от высоты солнца над горизонтом, облачности и скорости ветра. Ночью, в пасмурную погоду, а также при ветре 12 м/с и более поправка равна нулю.
P - Атмосферное давление - приведенное к уровню моря атмосферное давление.
Po - Атмосферное давление - измеренное на уровне метеостанции атмосферное давление.
Tmin - Минимальная температура - минимум температуры воздуха на высоте 2 м над землей.
Tmax - Максимальная температура - максимум температуры воздуха на высоте 2 м над землей.
R - Количество осадков - Количество выпавших осадков за 3 или 6 часов, мм.
SD - Снежный покров - Высота снежного покрова, см.